Regional Weather Roundup
Issued by NWS

Home | Current Version | Previous Version | Text Only | Print | Product List | Glossary Off
Versions: 1 2 3 4 5 6 7 8 9 10 11 12 13 14 15 16 17 18 19 20 21 22 23 24 25 26 27

000
ASUS45 KTFX 290110
RWRMT
MONTANA REGIONAL WEATHER ROUNDUP
NATIONAL WEATHER SERVICE GREAT FALLS MT
700 PM MDT SAT MAY 28 2016

NOTE: "FAIR" INDICATES FEW OR NO CLOUDS BELOW 12000 FEET WITH NO
SIGNIFICANT WEATHER AND/OR OBSTRUCTIONS TO VISIBILITY.

MTZ001>007-043-290200-
WEST OF THE DIVIDE

CITY           SKY/WX    TMP DP  RH WIND       PRES   REMARKS
KALISPELL      MOSUNNY   58  32  37 W8        30.01F
MISSOULA         N/A     62  32  32 N8        30.03F
BUTTE          SUNNY     57  28  33 W6        30.05S
MULLAN PASS    MOSUNNY   42  29  59 SW9       30.08F
ANACONDA         N/A     55  30  38 N6        30.05R
DEER LODGE       N/A     55  32  41 NW6       30.06S
EUREKA           N/A     59  30  33 SW12      30.01R
HAMILTON         N/A     64  28  25 N5        30.01F
LIBBY            N/A     61  30  31 CALM      30.03S
$$

MTZ008-052>055-290200-
SOUTHWEST MONTANA

CITY           SKY/WX    TMP DP  RH WIND       PRES   REMARKS
BOZEMAN        SUNNY     63  39  41 NE3       30.01S
DILLON         SUNNY     62  28  27 W7        30.01S
W YELLOWSTONE  CLOUDY    50  34  53 SW10      30.12R
ENNIS          PTSUNNY   59  34  38 CALM      30.08S
$$

MTZ009-010-012-014-046-048-049-054-290200-
EAST SLOPES AND CENTRAL MONTANA

CITY           SKY/WX    TMP DP  RH WIND       PRES   REMARKS
CUT BANK       MOSUNNY   57  30  35 SW23G30   29.96S
GREAT FALLS    SUNNY     60  27  28 W17G26    29.98S
MALMSTROM AFB  MOSUNNY   60  27  28 W14G20    29.99S
HELENA         CLOUDY    63  30  28 W18G25    30.00F
CHOTEAU          N/A     55  30  38 W6G13     30.00S
$$

MTZ011-013-016-021-045-047-050-051-290200-
NORTH CENTRAL MONTANA

CITY           SKY/WX    TMP DP  RH WIND       PRES   REMARKS
HAVRE          MOSUNNY   63  32  31 W16       29.92F
LEWISTOWN      SUNNY     61  31  32 NW10G18   29.99S
N BAR RANCH      N/A     57  32  38 NW9G17    30.03R
CHINOOK          N/A     64  34  32 W14       29.92S
$$

MTZ017>020-022>027-061-062-290200-
NORTHEAST MONTANA

CITY           SKY/WX    TMP DP  RH WIND       PRES   REMARKS
GLASGOW        SUNNY     65  38  36 W12       29.92S
JORDAN           N/A     66  37  34 W10       29.95S
SIDNEY         SUNNY     66  45  45 NW10      29.92R
WOLF POINT     SUNNY     68  43  40 W10       29.92S
PLENTYWOOD       N/A     63  48  59 NW12      29.91S
POPLAR           N/A     66  41  39 W8        29.92S
$$

MTZ028>42-056>058-290200-
SOUTHCENTRAL AND SOUTHEAST MONTANA

CITY           SKY/WX    TMP DP  RH WIND       PRES   REMARKS
BAKER          PTSUNNY   67  41  38 NW13      29.96R
BILLINGS       CLOUDY    66  40  38 W6        30.00R
LIVINGSTON     SUNNY     61  41  47 W12       30.00F
MILES CITY     MOSUNNY   69  37  30 W10       29.94R
FORSYTH          N/A     68  39  34 W9        29.94S
$$

REGIONAL REPORTS...DAKOTAS

CITY           SKY/WX    TMP DP  RH WIND       PRES   REMARKS
WILLISTON      MOSUNNY   62  56  80 S5        29.92S
MINOT          CLOUDY    67  54  63 N5        29.88S
DICKINSON      CLOUDY    60  54  80 N9        29.92R
BEACH            N/A     64  41  42 N17       29.98R
CROSBY         CLOUDY    57  57 100 S6        29.93R
WATFORD CITY     N/A     63  55  77 N7        29.93R
BISMARCK       RAIN      59  56  89 NE10      29.89F
GRAND FORKS    CLOUDY    64  58  80 E10       29.84R
FARGO          CLOUDY    64  58  80 N9        29.83R
BUFFALO SD       N/A     70  44  39 N14       29.89R
RAPID CITY     CLOUDY    60  53  77 S7        29.97R
$$

REGIONAL REPORTS...WYOMING/IDAHO/WASHINGTON

CITY           SKY/WX    TMP DP  RH WIND       PRES   REMARKS
GILLETTE       SUNNY     65  42  43 N6        30.00R
SHERIDAN       PTSUNNY   67  43  41 CALM      30.00R
BUFFALO WY       N/A     63  44  50 N7        30.04R
CODY           SUNNY     61  43  51 NE7       30.00S
YELLOWSTONE LA   N/A     48  27  44 W5        30.18R
IDAHO FALLS    SUNNY     64  27  24 S15       30.06S
SALMON         SUNNY     64  32  29 NW5       29.97S
BOISE          SUNNY     70  24  17 N9        29.99F
SPOKANE        PTSUNNY   62  34  35 S6        30.01F
$$

REGIONAL REPORTS...ALBERTA

CITY           SKY/WX    TMP DP  RH WIND       PRES   REMARKS
EDMONTON       CLOUDY    59  41  51 E10       29.83S
CALGARY        MOSUNNY   61  28  29 SW5       29.84F
LETHBRIDGE     MOSUNNY   61  32  33 W22G36    29.90R
MEDICINE HAT   MOSUNNY   66  34  30 SW9       29.86S
WATERTON GATE    N/A     55  27  33 SW16G26     N/A
MILK RIVER       N/A     61  30  31 W17         N/A
ONEFOUR          N/A     61  28  29 W14G21      N/A
$$

REGIONAL REPORTS...SASKATCHEWAN

CITY           SKY/WX    TMP DP  RH WIND       PRES   REMARKS
SWIFT CURRENT  CLOUDY    54  45  71 N7        29.89R
REGINA         LGT RAIN  55  54  94 SW6       29.89S
SASKATOON      LGT RAIN  55  55 100 CALM      29.87S
VAL MARIE        N/A     63  36  36 W18         N/A
ROCKGLEN         N/A     57  50  77 SE5         N/A
ASSINIBOIA       N/A     57  46  67 NE7         N/A
$$




USA.gov is the U.S. government's official web portal to all federal, state and local government web resources and services.